This is the latest recevied weather packets stored in our database for station/object KC9DNQ-3. If no packets are shown the sender has not sent any weather packets the latest 10 day(s).
| Time | Temp. | Humidity | Pressure | Rain* | Wind** | Luminosity | Snow |
|---|---|---|---|---|---|---|---|
| 1778175910 | 13.33° C | 52% | 1012.7 hPa | 0 mm | - | 272 W/m² | - |
| 1778175610 | 13.89° C | 46% | 1012.7 hPa | 0 mm | - | 246 W/m² | - |
| 1778175310 | 13.89° C | 44% | 1012.7 hPa | 0 mm | - | 274 W/m² | - |
| 1778175010 | 13.89° C | 44% | 1012.7 hPa | 0 mm | - | 290 W/m² | - |
| 1778174709 | 13.89° C | 45% | 1012.6 hPa | 0 mm | - | 283 W/m² | - |
| 1778174410 | 13.89° C | 43% | 1012.8 hPa | 0 mm | - | 264 W/m² | - |
| 1778174109 | 13.89° C | 43% | 1012.8 hPa | 0 mm | - | 267 W/m² | - |
| 1778173809 | 14.44° C | 42% | 1012.6 hPa | 0 mm | - | 227 W/m² | - |
| 1778173510 | 14.44° C | 40% | 1012.6 hPa | 0 mm | - | 183 W/m² | - |
| 1778173209 | 14.44° C | 41% | 1012.7 hPa | 0 mm | - | 250 W/m² | - |
| 1778172910 | 15° C | 40% | 1012.7 hPa | 0 mm | - | 297 W/m² | - |
| 1778172609 | 15.56° C | 36% | 1012.6 hPa | 0 mm | - | 315 W/m² | - |
| 1778172312 | 15.56° C | 37% | 1012.6 hPa | 0 mm | - | 490 W/m² | - |
| 1778172010 | 15.56° C | 44% | 1012.7 hPa | 0 mm | - | 436 W/m² | - |
| 1778171711 | 15.56° C | 39% | 1012.7 hPa | 0 mm | - | 420 W/m² | - |
| 1778171410 | 15.56° C | 41% | 1012.8 hPa | 0 mm | - | 717 W/m² | - |
| 1778171110 | 15.56° C | 39% | 1012.9 hPa | 0 mm | - | 835 W/m² | - |
| 1778170810 | 15.56° C | 41% | 1012.9 hPa | 0 mm | - | 893 W/m² | - |
| 1778170510 | 15° C | 40% | 1013.1 hPa | 0 mm | - | 951 W/m² | - |
| 1778170210 | 15° C | 44% | 1013.1 hPa | 0 mm | - | 951 W/m² | - |
| 1778169909 | 15° C | 42% | 1013.1 hPa | 0 mm | - | 260 W/m² | - |
| 1778169609 | 15° C | 44% | 1013.2 hPa | 0 mm | - | 844 W/m² | - |
| 1778169316 | 15° C | 42% | 1013.3 hPa | 0 mm | - | 803 W/m² | - |
| 1778169010 | 15° C | 43% | 1013.4 hPa | 0 mm | - | 861 W/m² | - |
| 1778168710 | 14.44° C | 43% | 1013.8 hPa | 0 mm | - | 817 W/m² | - |
* Rain latest hour (hover to see other rain measurements)
** Current wind speed in m/s (hover to see current wind gust speed)